Tracking 25703 objects as of 3-Jul-2022
HD Live streaming from Space Station
objects crossing your sky now

ERS 1

Track ERS 1 now!
10-day predictions
ERS 1 is classified as:


NORAD ID: 21574
Int'l Code: 1991-050A
Perigee: 749.8 km
Apogee: 795.3 km
Inclination: 98.7 °
Period: 100.1 minutes
Semi major axis: 7143 km
RCS: 11.0086 m2 (large)
Launch date: July 17, 1991
Source: European Space Agency (ESA)
Launch site: FRENCH GUIANA (FRGUI)
aabbcc
Your satellite tracking list
Your tracking list is empty




NASA's NSSDC Master Catalog

Two Line Element Set (TLE):
1 21574U 91050A   22183.51862198  .00000034  00000-0  26153-4 0  9998
2 21574  98.6981 152.5321 0031856 232.4759 127.3531 14.37911453622185
Source of the keplerian elements: AFSPC